When you browse on this site, cookies collect data to enhance your experience and personalize the content and advertising you see.
Visit our Privacy Policy to learn more. By continuing to use the site, you agree to this use of cookies and data.
  • In United Kingdom
  • List of Countries
  • For 7 days
  • Water Temperature
  • Weather Map
  • Weather Widgets
  • user-avatar
    Login

    Hourly Weather Sarospatak

    Today, 23 September, Monday

    Time Temperature Precipitation Wind Pressure Humidity
    00:00 +12°C° 0 mm 1 mps 753 mmHg 56%
    01:00 +12°C° 0 mm 1 mps 753 mmHg 57%
    02:00 +12°C° 0 mm 1 mps 752 mmHg 58%
    03:00 +11°C° 0 mm 1 mps 752 mmHg 59%
    04:00 +11°C° 0 mm 1 mps 752 mmHg 60%
    05:00 +12°C° 0 mm 1 mps 752 mmHg 59%
    06:00 +13°C° 0 mm 1 mps 752 mmHg 57%
    07:00 +14°C° 0 mm 1 mps 752 mmHg 55%
    08:00 +15°C° 0 mm 1 mps 752 mmHg 52%
    09:00 +16°C° 0 mm 1 mps 752 mmHg 49%
    10:00 +18°C° 0 mm 1 mps 752 mmHg 46%
    11:00 +19°C° 0 mm 1 mps 752 mmHg 45%
    12:00 +20°C° 0 mm 1 mps 752 mmHg 43%
    13:00 +21°C° 0 mm 1 mps 751 mmHg 42%
    14:00 +20°C° 0 mm 1 mps 751 mmHg 44%
    15:00 +20°C° 0 mm 1 mps 751 mmHg 46%
    16:00 +20°C° 0 mm 1 mps 751 mmHg 48%
    17:00 +19°C° 0 mm 1 mps 751 mmHg 54%
    18:00 +17°C° 0 mm 2 mps 751 mmHg 59%
    19:00 +15°C° 0 mm 2 mps 751 mmHg 65%
    20:00 +15°C° 0 mm 2 mps 751 mmHg 68%
    21:00 +14°C° 0 mm 2 mps 751 mmHg 71%
    22:00 +13°C° 0 mm 2 mps 751 mmHg 74%
    23:00 +13°C° 0 mm 2 mps 751 mmHg 76%

    Tomorrow, 24 September, Tuesday

    Time Temperature Precipitation Wind Pressure Humidity
    00:00 +13°C° 0 mm 2 mps 751 mmHg 77%
    01:00 +12°C° 0 mm 2 mps 751 mmHg 78%
    02:00 +12°C° 0 mm 2 mps 751 mmHg 79%
    03:00 +12°C° 0 mm 2 mps 750 mmHg 79%
    04:00 +10°C° 0 mm 2 mps 750 mmHg 80%
    05:00 +12°C° 0 mm 2 mps 750 mmHg 76%
    06:00 +13°C° 0 mm 2 mps 750 mmHg 72%
    07:00 +14°C° 0 mm 2 mps 750 mmHg 69%
    08:00 +17°C° 0 mm 2 mps 750 mmHg 60%
    09:00 +19°C° 0 mm 2 mps 750 mmHg 52%
    10:00 +21°C° 0 mm 2 mps 750 mmHg 44%
    11:00 +24°C° 0 mm 2 mps 750 mmHg 41%
    12:00 +25°C° 0 mm 2 mps 750 mmHg 38%
    13:00 +26°C° 0 mm 2 mps 749 mmHg 35%
    14:00 +26°C° 0 mm 1 mps 749 mmHg 36%
    15:00 +25°C° 0 mm 1 mps 749 mmHg 38%
    16:00 +25°C° 0 mm 1 mps 749 mmHg 39%
    17:00 +23°C° 0 mm 1 mps 749 mmHg 45%
    18:00 +21°C° 0 mm 1 mps 749 mmHg 51%
    19:00 +18°C° 0 mm 1 mps 750 mmHg 57%
    20:00 +18°C° 0 mm 1 mps 750 mmHg 61%
    21:00 +16°C° 0 mm 1 mps 750 mmHg 66%
    22:00 +15°C° 0 mm 1 mps 750 mmHg 70%
    23:00 +15°C° 0 mm 1 mps 750 mmHg 72%

    Day after tomorrow, 25 September, Wednesday

    Time Temperature Precipitation Wind Pressure Humidity
    00:00 +15°C° 0 mm 1 mps 750 mmHg 74%
    01:00 +15°C° 0 mm 1 mps 750 mmHg 76%
    02:00 +14°C° 0.2 mm 1 mps 750 mmHg 79%
    03:00 +14°C° 0.2 mm 1 mps 750 mmHg 82%
    04:00 +14°C° 0.2 mm 1 mps 750 mmHg 86%
    05:00 +14°C° 1.7 mm 1 mps 750 mmHg 89%
    06:00 +14°C° 1.7 mm 1 mps 749 mmHg 93%
    07:00 +14°C° 1.7 mm 1 mps 749 mmHg 96%
    08:00 +14°C° 1 mm 1 mps 750 mmHg 96%
    09:00 +14°C° 1 mm 1 mps 750 mmHg 96%
    10:00 +15°C° 1 mm 2 mps 750 mmHg 96%
    11:00 +15°C° 0.6 mm 2 mps 750 mmHg 95%
    12:00 +15°C° 0.6 mm 2 mps 750 mmHg 94%
    13:00 +15°C° 0.6 mm 2 mps 749 mmHg 94%
    14:00 +15°C° 0.1 mm 2 mps 749 mmHg 93%
    15:00 +15°C° 0.1 mm 2 mps 749 mmHg 92%
    16:00 +16°C° 0.1 mm 3 mps 749 mmHg 91%
    17:00 +15°C° 0 mm 2 mps 749 mmHg 92%
    18:00 +15°C° 0 mm 2 mps 749 mmHg 93%
    19:00 +14°C° 0 mm 2 mps 750 mmHg 94%
    20:00 +14°C° 0 mm 1 mps 750 mmHg 95%
    21:00 +14°C° 0 mm 1 mps 750 mmHg 95%
    22:00 +14°C° 0 mm 1 mps 750 mmHg 96%
    23:00 +14°C° 0 mm 1 mps 750 mmHg 96%

    26 September, Thursday

    Time Temperature Precipitation Wind Pressure Humidity
    00:00 +14°C° 0 mm 1 mps 750 mmHg 96%
    01:00 +14°C° 0 mm 1 mps 750 mmHg 96%
    02:00 +14°C° 0 mm 1 mps 750 mmHg 96%
    03:00 +14°C° 0 mm 1 mps 750 mmHg 95%
    04:00 +14°C° 0 mm 1 mps 750 mmHg 95%
    05:00 +14°C° 0.1 mm 1 mps 750 mmHg 95%
    06:00 +13°C° 0.1 mm 0 mps 750 mmHg 94%
    07:00 +13°C° 0.1 mm 0 mps 750 mmHg 94%
    08:00 +14°C° 0.1 mm 0 mps 751 mmHg 92%
    09:00 +15°C° 0.1 mm 0 mps 751 mmHg 89%
    10:00 +15°C° 0.1 mm 0 mps 751 mmHg 87%
    11:00 +15°C° 0.2 mm 0 mps 751 mmHg 87%
    12:00 +15°C° 0.2 mm 0 mps 751 mmHg 88%
    13:00 +15°C° 0.2 mm 0 mps 751 mmHg 88%
    14:00 +16°C° 0.1 mm 1 mps 751 mmHg 88%
    15:00 +16°C° 0.1 mm 1 mps 751 mmHg 87%
    16:00 +16°C° 0.1 mm 1 mps 751 mmHg 86%
    17:00 +16°C° 0 mm 1 mps 751 mmHg 88%
    18:00 +15°C° 0 mm 1 mps 752 mmHg 90%
    19:00 +14°C° 0 mm 1 mps 752 mmHg 91%
    20:00 +14°C° 0 mm 1 mps 752 mmHg 90%
    21:00 +14°C° 0 mm 1 mps 753 mmHg 89%
    22:00 +14°C° 0 mm 1 mps 753 mmHg 88%
    23:00 +13°C° 0 mm 1 mps 753 mmHg 88%

    27 September, Friday

    Time Temperature Precipitation Wind Pressure Humidity
    00:00 +13°C° 0 mm 1 mps 753 mmHg 88%
    01:00 +12°C° 0 mm 1 mps 753 mmHg 88%
    02:00 +12°C° 0 mm 1 mps 753 mmHg 88%
    03:00 +12°C° 0 mm 1 mps 754 mmHg 87%
    04:00 +12°C° 0 mm 1 mps 754 mmHg 87%
    05:00 +12°C° 0 mm 1 mps 754 mmHg 84%
    06:00 +13°C° 0 mm 1 mps 754 mmHg 81%
    07:00 +14°C° 0 mm 1 mps 754 mmHg 79%
    08:00 +16°C° 0 mm 1 mps 754 mmHg 72%
    09:00 +19°C° 0 mm 1 mps 754 mmHg 65%
    10:00 +20°C° 0 mm 1 mps 754 mmHg 59%
    11:00 +21°C° 0 mm 1 mps 754 mmHg 55%
    12:00 +22°C° 0 mm 1 mps 754 mmHg 51%
    13:00 +23°C° 0 mm 2 mps 754 mmHg 47%
    14:00 +23°C° 0 mm 2 mps 753 mmHg 49%
    15:00 +22°C° 0 mm 1 mps 753 mmHg 51%
    16:00 +22°C° 0 mm 1 mps 753 mmHg 52%
    17:00 +21°C° 0 mm 1 mps 753 mmHg 56%
    18:00 +19°C° 0 mm 1 mps 754 mmHg 60%
    19:00 +18°C° 0 mm 1 mps 754 mmHg 64%
    20:00 +16°C° 0 mm 1 mps 754 mmHg 65%
    21:00 +16°C° 0 mm 1 mps 754 mmHg 65%
    22:00 +16°C° 0 mm 1 mps 754 mmHg 66%
    23:00 +15°C° 0 mm 1 mps 754 mmHg 68%

    28 September, Saturday

    Time Temperature Precipitation Wind Pressure Humidity
    00:00 +15°C° 0 mm 1 mps 754 mmHg 70%
    01:00 +14°C° 0 mm 1 mps 754 mmHg 72%
    02:00 +14°C° 0 mm 2 mps 754 mmHg 74%
    03:00 +14°C° 0 mm 2 mps 754 mmHg 76%
    04:00 +13°C° 0 mm 2 mps 754 mmHg 77%
    05:00 +14°C° 0 mm 2 mps 754 mmHg 76%
    06:00 +14°C° 0 mm 2 mps 754 mmHg 75%
    07:00 +15°C° 0 mm 2 mps 754 mmHg 74%
    08:00 +17°C° 0 mm 2 mps 754 mmHg 69%
    09:00 +19°C° 0 mm 3 mps 754 mmHg 63%
    10:00 +20°C° 0 mm 3 mps 754 mmHg 57%
    11:00 +21°C° 0 mm 3 mps 754 mmHg 55%
    12:00 +22°C° 0 mm 4 mps 754 mmHg 53%
    13:00 +23°C° 0 mm 4 mps 753 mmHg 51%
    14:00 +23°C° 0 mm 4 mps 753 mmHg 53%
    15:00 +22°C° 0 mm 3 mps 753 mmHg 55%
    16:00 +22°C° 0 mm 3 mps 753 mmHg 57%
    17:00 +20°C° 0.1 mm 2 mps 753 mmHg 62%
    18:00 +19°C° 0.1 mm 2 mps 753 mmHg 66%
    19:00 +19°C° 0.1 mm 1 mps 753 mmHg 70%
    20:00 +18°C° 0.2 mm 1 mps 753 mmHg 73%
    21:00 +18°C° 0.2 mm 1 mps 753 mmHg 77%
    22:00 +16°C° 0.2 mm 1 mps 753 mmHg 80%
    23:00 +16°C° 0 mm 1 mps 753 mmHg 80%
    Show more